sat.trackr.live / text

‹ back to catalog

QIANFAN-87

NORAD 63173 · 2025-046Q

PAYLOAD ACTIVE UNKNOWN

§ Identity

Operator
Country
PRC
Launch date
2025-03-11
Launch site
WSC
Launch vehicle
Mass (kg)
RCS (m²)

External: N2YO · Heavens-Above · Gunter

§ Orbital elements

Epoch: 2026-09-22T22:17:21.738048Z

Period
106.59 min
Inclination
88.9637°
Eccentricity
0.0012518
Mean motion
13.51020363 rev/d
Perigee alt
1,059.2 km
Apogee alt
1,077.8 km
Semi-major
7,446.6 km
B*
2.2045e-6
RAAN
290.3803°
Arg perigee
34.0781°
Mean anomaly
326.1171°
Rev number
8,585

§ Raw data

QIANFAN-871 63173U 25046Q   26265.92872382  .00000014  00000+0  22045-5 0  99912 63173  88.9637 290.3803 0012518  34.0781 326.1171 13.51020363 85859

JSON: /api/v1/satellites/63173 · /tle

For live sub-satellite position, see the globe view (requires WebGL).

§ Visibility from observer

Set your observer location to see the next 7 days of passes ≥ 10°. The values pass through the URL so the page stays shareable.

No JS? Fill the form by hand. The geolocation button needs JavaScript.